| time (UTC) | temp F | wind direction | speed MPH | gust MPH | rain 1hr in | rain 24hr in | rain mn in | humidity % | barometer mb |
| 20260504033042 | 56 | 211 | 3.0 | 4.0 | 0.00 | 0.00 | 0.00 | 86 | 1019.0 |
| 20260504031323 | 56 | 206 | 3.0 | 5.0 | 0.00 | 0.00 | 0.00 | 85 | 1019.1 |
| 20260504030820 | 56 | 191 | 2.0 | 5.0 | 0.00 | 0.00 | 0.00 | 85 | 1019.1 |
| 20260504030316 | 56 | 209 | 2.0 | 5.0 | 0.00 | 0.00 | 0.00 | 85 | 1019.1 |
| 20260504025757 | 56 | 207 | 3.0 | 4.0 | 0.00 | 0.00 | 0.00 | 85 | 1019.0 |
| 20260504025308 | 56 | 205 | 3.0 | 4.0 | 0.00 | 0.00 | 0.00 | 84 | 1019.1 |
| 20260504024759 | 57 | 205 | 2.0 | 4.0 | 0.00 | 0.00 | 0.00 | 84 | 1019.1 |
| 20260504024256 | 57 | 208 | 2.0 | 4.0 | 0.00 | 0.00 | 0.00 | 84 | 1019.1 |
| 20260504023141 | 57 | 207 | 2.0 | 4.0 | 0.00 | 0.00 | 0.00 | 84 | 1019.2 |
| 20260504022638 | 57 | 204 | 2.0 | 4.0 | 0.00 | 0.00 | 0.00 | 84 | 1019.2 |
| 20260504022148 | 57 | 209 | 2.0 | 5.0 | 0.00 | 0.00 | 0.00 | 84 | 1019.2 |
| 20260504021651 | 57 | 201 | 2.0 | 5.0 | 0.00 | 0.00 | 0.00 | 83 | 1019.3 |
| 20260504021140 | 57 | 210 | 2.0 | 5.0 | 0.00 | 0.00 | 0.00 | 83 | 1019.2 |
| 20260504020644 | 57 | 221 | 2.0 | 5.0 | 0.00 | 0.00 | 0.00 | 83 | 1019.2 |
| 20260504020147 | 57 | 213 | 2.0 | 4.0 | 0.00 | 0.00 | 0.00 | 83 | 1019.2 |
| 20260504015647 | 57 | 204 | 2.0 | 4.0 | 0.00 | 0.00 | 0.00 | 83 | 1019.3 |
| 20260504015133 | 57 | 207 | 2.0 | 4.0 | 0.00 | 0.00 | 0.00 | 82 | 1019.2 |
| 20260504013953 | 57 | 192 | 1.0 | 3.0 | 0.00 | 0.00 | 0.00 | 82 | 1019.1 |
| 20260504013445 | 57 | 196 | 1.0 | 3.0 | 0.00 | 0.00 | 0.00 | 82 | 1019.2 |
| 20260504011713 | 59 | 225 | 2.0 | 4.0 | 0.00 | 0.00 | 0.00 | 82 | 1019.3 |
| 20260504011203 | 59 | 213 | 2.0 | 3.0 | 0.00 | 0.00 | 0.00 | 82 | 1019.2 |
| 20260504010711 | 60 | 217 | 2.0 | 3.0 | 0.00 | 0.00 | 0.00 | 82 | 1019.1 |
| 20260504005548 | 60 | 234 | 1.0 | 3.0 | 0.00 | 0.00 | 0.00 | 82 | 1019.2 |
| 20260504005054 | 60 | 217 | 1.0 | 3.0 | 0.00 | 0.00 | 0.00 | 81 | 1019.3 |
| 20260504004559 | 60 | 214 | 1.0 | 3.0 | 0.00 | 0.00 | 0.00 | 81 | 1019.2 |
| 20260504004103 | 61 | 194 | 1.0 | 7.0 | 0.00 | 0.00 | 0.00 | 81 | 1019.3 |
| 20260504003554 | 62 | 250 | 1.0 | 7.0 | 0.00 | 0.00 | 0.00 | 82 | 1019.2 |
| 20260504003051 | 62 | 257 | 2.0 | 7.0 | 0.00 | 0.00 | 0.00 | 82 | 1019.2 |
| 20260504002559 | 62 | 282 | 2.0 | 7.0 | 0.00 | 0.00 | 0.00 | 82 | 1019.3 |
| 20260504002054 | 62 | 295 | 1.0 | 6.0 | 0.00 | 0.00 | 0.00 | 82 | 1019.3 |
| 20260504000911 | 61 | 215 | 1.0 | 6.0 | 0.00 | 0.00 | 0.00 | 81 | 1019.3 |
| 20260504000356 | 62 | 273 | 2.0 | 6.0 | 0.00 | 0.00 | 0.00 | 82 | 1019.4 |
| 20260503235905 | 61 | 275 | 2.0 | 6.0 | 0.00 | 0.00 | 0.00 | 82 | 1019.5 |
| 20260503235348 | 60 | 232 | 1.0 | 6.0 | 0.00 | 0.00 | 0.00 | 82 | 1019.4 |
| 20260503234841 | 60 | 213 | 1.0 | 3.0 | 0.00 | 0.00 | 0.00 | 80 | 1019.5 |
| 20260503234348 | 59 | 201 | 1.0 | 3.0 | 0.00 | 0.00 | 0.00 | 80 | 1019.4 |
| 20260503233846 | 59 | 204 | 1.0 | 2.0 | 0.00 | 0.00 | 0.00 | 79 | 1019.5 |
| 20260503233350 | 59 | 205 | 1.0 | 2.0 | 0.00 | 0.00 | 0.00 | 79 | 1019.5 |
| 20260503232843 | 59 | 192 | 1.0 | 3.0 | 0.00 | 0.00 | 0.00 | 78 | 1019.6 |
| 20260503232352 | 60 | 192 | 1.0 | 3.0 | 0.00 | 0.00 | 0.00 | 78 | 1019.5 |
| 20260503231848 | 60 | 209 | 1.0 | 6.0 | 0.00 | 0.00 | 0.00 | 78 | 1019.6 |
| 20260503231331 | 61 | 248 | 1.0 | 6.0 | 0.00 | 0.00 | 0.00 | 78 | 1019.5 |
| 20260503230814 | 62 | 248 | 1.0 | 6.0 | 0.00 | 0.00 | 0.00 | 80 | 1019.5 |
| 20260503230300 | 62 | 261 | 0.0 | 6.0 | 0.00 | 0.00 | 0.00 | 79 | 1019.5 |
| 20260503225140 | 63 | 267 | 3.0 | 7.0 | 0.00 | 0.00 | 0.00 | 80 | 1019.6 |
| 20260503224640 | 63 | 294 | 3.0 | 7.0 | 0.00 | 0.00 | 0.00 | 79 | 1019.7 |
| 20260503223509 | 63 | 286 | 1.0 | 6.0 | 0.00 | 0.00 | 0.00 | 79 | 1019.7 |
| 20260503223017 | 62 | 248 | 1.0 | 6.0 | 0.00 | 0.00 | 0.00 | 78 | 1019.6 |
| 20260503221857 | 63 | 282 | 2.0 | 8.0 | 0.00 | 0.00 | 0.00 | 78 | 1019.6 |
| 20260503221350 | 63 | 242 | 2.0 | 8.0 | 0.00 | 0.00 | 0.00 | 78 | 1019.6 |
| 20260503220852 | 63 | 280 | 3.0 | 8.0 | 0.00 | 0.00 | 0.00 | 78 | 1019.6 |
| 20260503215713 | 63 | 277 | 4.0 | 11.0 | 0.00 | 0.00 | 0.00 | 77 | 1019.5 |
| 20260503215209 | 63 | 263 | 5.0 | 11.0 | 0.00 | 0.00 | 0.00 | 77 | 1019.5 |
| 20260503214716 | 63 | 299 | 5.0 | 11.0 | 0.00 | 0.00 | 0.00 | 77 | 1019.4 |
| 20260503214218 | 63 | 288 | 6.0 | 10.0 | 0.00 | 0.00 | 0.00 | 77 | 1019.3 |
| 20260503213708 | 63 | 333 | 5.0 | 10.0 | 0.00 | 0.00 | 0.00 | 77 | 1019.3 |
| 20260503213155 | 63 | 315 | 5.0 | 10.0 | 0.00 | 0.00 | 0.00 | 77 | 1019.3 |
| 20260503212654 | 63 | 301 | 4.0 | 9.0 | 0.00 | 0.00 | 0.00 | 77 | 1019.4 |
| 20260503212158 | 63 | 302 | 4.0 | 8.0 | 0.00 | 0.00 | 0.00 | 78 | 1019.4 |
| 20260503211707 | 63 | 275 | 3.0 | 8.0 | 0.00 | 0.00 | 0.00 | 78 | 1019.4 |
| 20260503211201 | 63 | 286 | 3.0 | 8.0 | 0.00 | 0.00 | 0.00 | 78 | 1019.4 |
| 20260503210643 | 63 | 293 | 2.0 | 7.0 | 0.00 | 0.00 | 0.00 | 78 | 1019.5 |
| 20260503210144 | 63 | 302 | 4.0 | 9.0 | 0.00 | 0.00 | 0.00 | 77 | 1019.5 |
| 20260503205631 | 63 | 227 | 4.0 | 9.0 | 0.00 | 0.00 | 0.00 | 77 | 1019.5 |
| 20260503205139 | 63 | 291 | 5.0 | 12.0 | 0.00 | 0.00 | 0.00 | 78 | 1019.5 |
| 20260503204623 | 63 | 260 | 6.0 | 12.0 | 0.00 | 0.00 | 0.00 | 78 | 1019.4 |
| 20260503204114 | 63 | 271 | 6.0 | 12.0 | 0.00 | 0.00 | 0.00 | 78 | 1019.3 |
| 20260503203609 | 63 | 277 | 7.0 | 12.0 | 0.00 | 0.00 | 0.00 | 78 | 1019.4 |
| 20260503203108 | 63 | 277 | 7.0 | 14.0 | 0.00 | 0.00 | 0.00 | 78 | 1019.4 |
| 20260503202559 | 64 | 288 | 7.0 | 14.0 | 0.00 | 0.00 | 0.00 | 78 | 1019.2 |
| 20260503202046 | 64 | 288 | 7.0 | 18.0 | 0.00 | 0.00 | 0.00 | 77 | 1019.3 |
| 20260503201539 | 64 | 286 | 8.0 | 18.0 | 0.00 | 0.00 | 0.00 | 76 | 1019.2 |
| 20260503201043 | 64 | 283 | 9.0 | 18.0 | 0.00 | 0.00 | 0.00 | 74 | 1019.2 |
| 20260503200526 | 64 | 292 | 9.0 | 18.0 | 0.00 | 0.00 | 0.00 | 72 | 1019.2 |
| 20260503200013 | 65 | 288 | 7.0 | 14.0 | 0.00 | 0.00 | 0.00 | 66 | 1019.1 |
| 20260503194832 | 65 | 302 | 4.0 | 11.0 | 0.00 | 0.00 | 0.00 | 55 | 1018.9 |
| 20260503194314 | 64 | 277 | 1.0 | 7.0 | 0.00 | 0.00 | 0.00 | 55 | 1018.9 |
| 20260503193803 | 64 | 280 | 1.0 | 3.0 | 0.00 | 0.00 | 0.00 | 54 | 1019.0 |
| 20260503193255 | 65 | 304 | 0.0 | 10.0 | 0.00 | 0.00 | 0.00 | 56 | 1018.9 |
| 20260503192748 | 65 | 308 | 1.0 | 10.0 | 0.00 | 0.00 | 0.00 | 56 | 1018.9 |
| 20260503192251 | 65 | 263 | 3.0 | 10.0 | 0.00 | 0.00 | 0.00 | 51 | 1018.9 |
| 20260503191758 | 65 | 259 | 3.0 | 10.0 | 0.00 | 0.00 | 0.00 | 48 | 1018.8 |
| 20260503191257 | 65 | 318 | 2.0 | 8.0 | 0.00 | 0.00 | 0.00 | 51 | 1018.7 |
| 20260503190752 | 64 | 254 | 1.0 | 7.0 | 0.00 | 0.00 | 0.00 | 53 | 1018.8 |
| 20260503190246 | 64 | 242 | 1.0 | 5.0 | 0.00 | 0.00 | 0.00 | 57 | 1018.8 |
| 20260503185141 | 64 | 248 | 0.0 | 5.0 | 0.00 | 0.00 | 0.00 | 59 | 1018.6 |
| 20260503184629 | 64 | 105 | 1.0 | 5.0 | 0.00 | 0.00 | 0.00 | 61 | 1018.6 |
| 20260503184137 | 64 | 155 | 0.0 | 4.0 | 0.00 | 0.00 | 0.00 | 64 | 1018.6 |
| 20260503183625 | 64 | 213 | 0.0 | 6.0 | 0.00 | 0.00 | 0.00 | 63 | 1018.6 |
| 20260503183127 | 65 | 213 | 1.0 | 6.0 | 0.00 | 0.00 | 0.00 | 62 | 1018.4 |
| 20260503181356 | 66 | 279 | 3.0 | 11.0 | 0.00 | 0.00 | 0.00 | 47 | 1018.3 |
| 20260503180227 | 66 | 269 | 6.0 | 14.0 | 0.00 | 0.00 | 0.00 | 48 | 1018.2 |
| 20260503175722 | 66 | 251 | 6.0 | 14.0 | 0.00 | 0.00 | 0.00 | 51 | 1018.1 |
| 20260503175226 | 66 | 257 | 6.0 | 14.0 | 0.00 | 0.00 | 0.00 | 52 | 1018.2 |
| 20260503174730 | 66 | 291 | 7.0 | 14.0 | 0.00 | 0.00 | 0.00 | 56 | 1018.1 |
| 20260503172956 | 67 | 279 | 8.0 | 17.0 | 0.00 | 0.00 | 0.00 | 55 | 1018.0 |
| 20260503172443 | 67 | 300 | 9.0 | 17.0 | 0.00 | 0.00 | 0.00 | 57 | 1017.9 |
| 20260503171940 | 67 | 265 | 9.0 | 17.0 | 0.00 | 0.00 | 0.00 | 53 | 1017.8 |
| 20260503171436 | 67 | 273 | 8.0 | 17.0 | 0.00 | 0.00 | 0.00 | 54 | 1017.8 |
| 20260503170945 | 66 | 298 | 9.0 | 16.0 | 0.00 | 0.00 | 0.00 | 56 | 1017.7 |
| 20260503170427 | 66 | 291 | 10.0 | 16.0 | 0.00 | 0.00 | 0.00 | 60 | 1017.8 |
| 20260503150641 | 66 | 281 | 15.0 | 23.0 | 0.00 | 0.00 | 0.00 | 75 | 1018.5 |
| 20260503150136 | 66 | 281 | 14.0 | 24.0 | 0.00 | 0.00 | 0.00 | 74 | 1018.5 |
| 20260503131019 | 68 | 305 | 11.0 | 19.0 | 0.00 | 0.00 | 0.00 | 59 | 1019.2 |
| 20260503130501 | 68 | 309 | 12.0 | 20.0 | 0.00 | 0.00 | 0.00 | 61 | 1019.3 |
| 20260503110614 | 65 | 263 | 11.0 | 17.0 | 0.00 | 0.00 | 0.00 | 71 | 1020.0 |
| 20260503110117 | 65 | 290 | 11.0 | 17.0 | 0.00 | 0.00 | 0.00 | 71 | 1020.0 |
| 20260503090343 | 63 | 302 | 8.0 | 10.0 | 0.00 | 0.00 | 0.00 | 78 | 1020.7 |
| 20260503081251 | 61 | 336 | 4.0 | 7.0 | 0.00 | 0.00 | 0.00 | 81 | 1020.7 |
| 20260503080732 | 61 | 334 | 4.0 | 7.0 | 0.00 | 0.00 | 0.00 | 82 | 1020.7 |
| 20260503072227 | 60 | 313 | 4.0 | 8.0 | 0.00 | 0.00 | 0.00 | 84 | 1021.0 |
| 20260503071723 | 60 | 329 | 5.0 | 8.0 | 0.00 | 0.00 | 0.00 | 84 | 1020.9 |
| 20260503071228 | 60 | 329 | 5.0 | 8.0 | 0.00 | 0.00 | 0.00 | 84 | 1021.0 |
| 20260503070735 | 60 | 330 | 6.0 | 8.0 | 0.00 | 0.00 | 0.00 | 84 | 1020.9 |
| 20260503070219 | 60 | 337 | 6.0 | 9.0 | 0.00 | 0.00 | 0.00 | 85 | 1021.0 |
| 20260503060243 | 61 | 292 | 10.0 | 14.0 | 0.00 | 0.00 | 0.00 | 87 | 1020.9 |
| 20260503055115 | 61 | 287 | 7.0 | 10.0 | 0.00 | 0.00 | 0.00 | 86 | 1020.7 |
| 20260503054619 | 61 | 311 | 7.0 | 10.0 | 0.00 | 0.00 | 0.00 | 86 | 1020.6 |
| 20260503054113 | 61 | 299 | 5.0 | 9.0 | 0.00 | 0.00 | 0.00 | 86 | 1020.7 |
| 20260503053616 | 61 | 294 | 4.0 | 7.0 | 0.00 | 0.00 | 0.00 | 86 | 1020.6 |
| 20260503053110 | 61 | 305 | 3.0 | 6.0 | 0.00 | 0.00 | 0.00 | 86 | 1020.6 |
| 20260503052602 | 61 | 293 | 3.0 | 5.0 | 0.00 | 0.00 | 0.00 | 86 | 1020.6 |
| 20260503052058 | 61 | 284 | 3.0 | 6.0 | 0.00 | 0.00 | 0.00 | 86 | 1020.5 |
| 20260503051559 | 61 | 297 | 3.0 | 6.0 | 0.00 | 0.00 | 0.00 | 86 | 1020.5 |
| 20260503051055 | 61 | 315 | 3.0 | 7.0 | 0.00 | 0.00 | 0.00 | 85 | 1020.4 |
| 20260503050546 | 61 | 321 | 3.0 | 7.0 | 0.00 | 0.00 | 0.00 | 85 | 1020.4 |
| 20260503050052 | 60 | 315 | 4.0 | 9.0 | 0.00 | 0.00 | 0.00 | 85 | 1020.4 |
| 20260503045555 | 60 | 298 | 5.0 | 9.0 | 0.00 | 0.00 | 0.00 | 85 | 1020.4 |
| 20260503045050 | 60 | 309 | 6.0 | 9.0 | 0.00 | 0.00 | 0.00 | 84 | 1020.3 |
| 20260503044540 | 60 | 313 | 6.0 | 9.0 | 0.00 | 0.00 | 0.00 | 84 | 1020.3 |
| 20260503044042 | 60 | 283 | 7.0 | 9.0 | 0.00 | 0.00 | 0.00 | 83 | 1020.3 |
| 20260503043548 | 60 | 296 | 7.0 | 9.0 | 0.00 | 0.00 | 0.00 | 83 | 1020.2 |
| 20260503043042 | 60 | 290 | 6.0 | 9.0 | 0.00 | 0.00 | 0.00 | 83 | 1020.2 |
| 20260503041906 | 59 | 303 | 8.0 | 11.0 | 0.00 | 0.00 | 0.00 | 85 | 1020.1 |
| 20260503041416 | 59 | 304 | 7.0 | 11.0 | 0.00 | 0.00 | 0.00 | 85 | 1020.1 |
| 20260503040915 | 59 | 297 | 7.0 | 11.0 | 0.00 | 0.00 | 0.00 | 86 | 1020.0 |
| 20260503040413 | 59 | 298 | 8.0 | 11.0 | 0.00 | 0.00 | 0.00 | 87 | 1019.9 |
| 20260503035903 | 60 | 291 | 8.0 | 11.0 | 0.00 | 0.00 | 0.00 | 87 | 1019.9 |
| 20260503035400 | 60 | 289 | 9.0 | 11.0 | 0.00 | 0.00 | 0.00 | 86 | 1019.9 |
| 20260503034846 | 60 | 298 | 9.0 | 11.0 | 0.00 | 0.00 | 0.00 | 85 | 1019.9 |